{"data":{"norad_id":43010,"intl_designator":"2017-072A","name":"FENGYUN 3D","alt_names":[],"object_type":"PAYLOAD","status":"ACTIVE","operator":null,"country":"PRC","launch_date":"2017-11-14","launch_site_code":"TAISC","launch_vehicle":null,"mission":null,"orbit_class":"UNKNOWN","rcs_meters":null,"size_class":null,"mass_kg":null,"dimensions":null,"purposes":["earth_obs"],"wikipedia_slug":null,"has_3d_model":false,"image_url":null,"decayed_at":null,"tle_current":{"epoch":"2026-05-25T04:08:27.091392Z","epoch_age_seconds":56813,"freshness":"FRESH","line1":"1 43010U 17072A   26145.17253578  .00000222  00000+0  12663-3 0  9997","line2":"2 43010  99.0118 119.1812 0002500 100.4473 259.6985 14.19734693441726","mean_motion":14.19734693,"eccentricity":0.00025,"inclination_deg":99.0118,"raan_deg":119.1812,"arg_perigee_deg":100.4473,"mean_anomaly_deg":259.6985,"bstar":0.00012663,"rev_number":44172,"period_min":101.42740098554,"perigee_km":824.44908189428,"apogee_km":828.05127548362,"semimajor_km":7204.3871786889,"source":"CELESTRAK","updated_at":"2026-05-25T13:38:12.248275Z"}}}